When you browse on this site, cookies collect data to enhance your experience and personalize the content and advertising you see.
Visit our Privacy Policy to learn more. By continuing to use the site, you agree to this use of cookies and data.
  • Em Portugal
  • Lista de países
  • Para 7 dias
  • Temperatura da água
  • Mapa do tempo
  • Widgets de tempo
  • user-avatar
    Iniciar Sessão

    Previsão horária em Elizavetinskoe

    Hoje, 29 Maio, Sexta-feira

    Tempo Temperatura Precipitação Vento Pressão Humidade
    00:00 +10°C° 0 mm 2 m/s 740 mmHg 86%
    01:00 +9°C° 0 mm 2 m/s 740 mmHg 89%
    02:00 +9°C° 0 mm 2 m/s 740 mmHg 89%
    03:00 +9°C° 0 mm 2 m/s 741 mmHg 89%
    04:00 +9°C° 0 mm 2 m/s 741 mmHg 85%
    05:00 +12°C° 0 mm 2 m/s 741 mmHg 78%
    06:00 +13°C° 0 mm 3 m/s 741 mmHg 70%
    07:00 +16°C° 0 mm 3 m/s 741 mmHg 63%
    08:00 +17°C° 0 mm 4 m/s 741 mmHg 57%
    09:00 +18°C° 0 mm 4 m/s 741 mmHg 51%
    10:00 +20°C° 0 mm 5 m/s 741 mmHg 45%
    11:00 +20°C° 0 mm 4 m/s 741 mmHg 45%
    12:00 +20°C° 0 mm 4 m/s 741 mmHg 46%
    13:00 +20°C° 0 mm 4 m/s 741 mmHg 46%
    14:00 +20°C° 0 mm 4 m/s 740 mmHg 47%
    15:00 +20°C° 0 mm 3 m/s 740 mmHg 47%
    16:00 +20°C° 0 mm 3 m/s 740 mmHg 48%
    17:00 +20°C° 0 mm 3 m/s 740 mmHg 52%
    18:00 +19°C° 0 mm 2 m/s 740 mmHg 57%
    19:00 +18°C° 0 mm 2 m/s 740 mmHg 61%
    20:00 +17°C° 0 mm 2 m/s 740 mmHg 66%
    21:00 +15°C° 0 mm 2 m/s 740 mmHg 71%
    22:00 +13°C° 0 mm 1 m/s 740 mmHg 76%
    23:00 +13°C° 0 mm 1 m/s 740 mmHg 77%

    Amanhã, 30 Maio, Sábado

    Tempo Temperatura Precipitação Vento Pressão Humidade
    00:00 +12°C° 0 mm 1 m/s 740 mmHg 79%
    01:00 +12°C° 0 mm 1 m/s 740 mmHg 80%
    02:00 +11°C° 0 mm 1 m/s 740 mmHg 81%
    03:00 +10°C° 0 mm 2 m/s 740 mmHg 83%
    04:00 +10°C° 0 mm 2 m/s 740 mmHg 84%
    05:00 +13°C° 0 mm 2 m/s 740 mmHg 78%
    06:00 +14°C° 0 mm 3 m/s 740 mmHg 72%
    07:00 +17°C° 0 mm 3 m/s 739 mmHg 66%
    08:00 +18°C° 0 mm 3 m/s 739 mmHg 61%
    09:00 +19°C° 0 mm 4 m/s 739 mmHg 57%
    10:00 +21°C° 0 mm 4 m/s 739 mmHg 53%
    11:00 +21°C° 0 mm 4 m/s 739 mmHg 52%
    12:00 +21°C° 0 mm 4 m/s 739 mmHg 51%
    13:00 +22°C° 0 mm 3 m/s 739 mmHg 51%
    14:00 +21°C° 0 mm 3 m/s 738 mmHg 56%
    15:00 +20°C° 0 mm 2 m/s 738 mmHg 62%
    16:00 +19°C° 0 mm 2 m/s 738 mmHg 67%
    17:00 +18°C° 0 mm 2 m/s 738 mmHg 70%
    18:00 +18°C° 0 mm 2 m/s 737 mmHg 73%
    19:00 +18°C° 0 mm 1 m/s 737 mmHg 76%
    20:00 +16°C° 0 mm 2 m/s 737 mmHg 82%
    21:00 +14°C° 0 mm 2 m/s 737 mmHg 87%
    22:00 +13°C° 0 mm 2 m/s 737 mmHg 92%
    23:00 +12°C° 0 mm 2 m/s 737 mmHg 93%

    Depois de amanhã, 31 Maio, Domingo

    Tempo Temperatura Precipitação Vento Pressão Humidade
    00:00 +12°C° 0 mm 2 m/s 736 mmHg 94%
    01:00 +10°C° 0 mm 2 m/s 736 mmHg 94%
    02:00 +10°C° 0 mm 2 m/s 736 mmHg 93%
    03:00 +10°C° 0 mm 2 m/s 736 mmHg 92%
    04:00 +10°C° 0 mm 2 m/s 735 mmHg 91%
    05:00 +10°C° 0 mm 2 m/s 735 mmHg 89%
    06:00 +10°C° 0 mm 3 m/s 735 mmHg 86%
    07:00 +10°C° 0 mm 4 m/s 735 mmHg 83%
    08:00 +10°C° 0 mm 4 m/s 734 mmHg 81%
    09:00 +9°C° 0 mm 5 m/s 734 mmHg 79%
    10:00 +9°C° 0 mm 5 m/s 734 mmHg 77%
    11:00 +9°C° 0 mm 5 m/s 734 mmHg 76%
    12:00 +8°C° 0 mm 5 m/s 733 mmHg 75%
    13:00 +8°C° 0 mm 5 m/s 733 mmHg 74%
    14:00 +8°C° 0.1 mm 5 m/s 733 mmHg 75%
    15:00 +8°C° 0.1 mm 5 m/s 733 mmHg 76%
    16:00 +8°C° 0.1 mm 5 m/s 733 mmHg 77%
    17:00 +7°C° 1.2 mm 5 m/s 732 mmHg 83%
    18:00 +6°C° 1.2 mm 5 m/s 732 mmHg 89%
    19:00 +6°C° 1.2 mm 5 m/s 731 mmHg 95%
    20:00 +6°C° 2.5 mm 5 m/s 731 mmHg 96%
    21:00 +6°C° 2.5 mm 5 m/s 731 mmHg 96%
    22:00 +5°C° 2.5 mm 5 m/s 731 mmHg 96%
    23:00 +6°C° 3.7 mm 5 m/s 731 mmHg 97%

    1 Junho, Segunda-feira

    Tempo Temperatura Precipitação Vento Pressão Humidade
    00:00 +6°C° 3.7 mm 5 m/s 731 mmHg 97%
    01:00 +6°C° 3.7 mm 5 m/s 731 mmHg 97%
    02:00 +6°C° 0 mm 4 m/s 731 mmHg 97%
    03:00 +6°C° 0 mm 4 m/s 731 mmHg 97%
    04:00 +7°C° 0 mm 3 m/s 731 mmHg 97%
    05:00 +7°C° 0.2 mm 3 m/s 731 mmHg 97%
    06:00 +7°C° 0.2 mm 3 m/s 731 mmHg 97%
    07:00 +7°C° 0.2 mm 3 m/s 731 mmHg 97%
    08:00 +7°C° 0.4 mm 3 m/s 732 mmHg 97%
    09:00 +7°C° 0.4 mm 3 m/s 732 mmHg 96%
    10:00 +7°C° 0.4 mm 3 m/s 732 mmHg 96%
    11:00 +7°C° 0.2 mm 3 m/s 732 mmHg 96%
    12:00 +8°C° 0.2 mm 3 m/s 732 mmHg 96%
    13:00 +8°C° 0.2 mm 3 m/s 733 mmHg 95%
    14:00 +8°C° 0.2 mm 3 m/s 733 mmHg 96%
    15:00 +8°C° 0.2 mm 3 m/s 733 mmHg 96%
    16:00 +8°C° 0.2 mm 3 m/s 733 mmHg 97%
    17:00 +8°C° 0.1 mm 3 m/s 733 mmHg 97%
    18:00 +8°C° 0.1 mm 3 m/s 733 mmHg 97%
    19:00 +8°C° 0.1 mm 2 m/s 733 mmHg 97%
    20:00 +8°C° 0 mm 2 m/s 733 mmHg 98%
    21:00 +8°C° 0 mm 2 m/s 733 mmHg 98%
    22:00 +8°C° 0 mm 2 m/s 733 mmHg 98%
    23:00 +8°C° 0.1 mm 2 m/s 733 mmHg 98%

    2 Junho, Terça-feira

    Tempo Temperatura Precipitação Vento Pressão Humidade
    00:00 +8°C° 0.1 mm 2 m/s 733 mmHg 98%
    01:00 +8°C° 0.1 mm 2 m/s 733 mmHg 98%
    02:00 +8°C° 0.1 mm 2 m/s 733 mmHg 98%
    03:00 +8°C° 0.1 mm 2 m/s 733 mmHg 98%
    04:00 +8°C° 0.1 mm 2 m/s 733 mmHg 98%
    05:00 +8°C° 0.1 mm 2 m/s 734 mmHg 98%
    06:00 +8°C° 0.1 mm 2 m/s 734 mmHg 98%
    07:00 +8°C° 0.1 mm 2 m/s 735 mmHg 97%
    08:00 +9°C° 0.2 mm 2 m/s 735 mmHg 97%
    09:00 +9°C° 0.2 mm 2 m/s 735 mmHg 96%
    10:00 +9°C° 0.2 mm 2 m/s 736 mmHg 95%
    11:00 +9°C° 0.1 mm 2 m/s 736 mmHg 95%
    12:00 +9°C° 0.1 mm 2 m/s 736 mmHg 95%
    13:00 +9°C° 0.1 mm 2 m/s 737 mmHg 95%
    14:00 +10°C° 0 mm 2 m/s 737 mmHg 94%
    15:00 +10°C° 0 mm 2 m/s 737 mmHg 93%
    16:00 +10°C° 0 mm 2 m/s 737 mmHg 92%
    17:00 +10°C° 0 mm 2 m/s 737 mmHg 92%
    18:00 +11°C° 0 mm 1 m/s 737 mmHg 92%
    19:00 +12°C° 0 mm 1 m/s 737 mmHg 92%
    20:00 +11°C° 0 mm 1 m/s 737 mmHg 94%
    21:00 +10°C° 0 mm 1 m/s 737 mmHg 96%
    22:00 +10°C° 0 mm 1 m/s 738 mmHg 98%
    23:00 +10°C° 0 mm 1 m/s 737 mmHg 98%

    3 Junho, Quarta-feira

    Tempo Temperatura Precipitação Vento Pressão Humidade
    00:00 +10°C° 0 mm 1 m/s 737 mmHg 98%
    01:00 +9°C° 0 mm 1 m/s 737 mmHg 98%
    02:00 +9°C° 0 mm 1 m/s 737 mmHg 98%
    03:00 +10°C° 0 mm 1 m/s 737 mmHg 97%
    04:00 +10°C° 0 mm 1 m/s 737 mmHg 97%
    05:00 +9°C° 0 mm 2 m/s 737 mmHg 96%
    06:00 +9°C° 0 mm 2 m/s 737 mmHg 95%
    07:00 +9°C° 0 mm 2 m/s 737 mmHg 94%
    08:00 +10°C° 0 mm 2 m/s 736 mmHg 94%
    09:00 +10°C° 0 mm 2 m/s 736 mmHg 94%
    10:00 +10°C° 0 mm 2 m/s 736 mmHg 93%
    11:00 +11°C° 0 mm 3 m/s 736 mmHg 91%
    12:00 +11°C° 0 mm 3 m/s 736 mmHg 88%
    13:00 +12°C° 0 mm 3 m/s 736 mmHg 86%
    14:00 +12°C° 0 mm 3 m/s 736 mmHg 84%
    15:00 +13°C° 0 mm 3 m/s 735 mmHg 82%
    16:00 +13°C° 0 mm 3 m/s 735 mmHg 80%
    17:00 +13°C° 0.1 mm 3 m/s 735 mmHg 82%
    18:00 +12°C° 0.1 mm 3 m/s 735 mmHg 85%
    19:00 +12°C° 0.1 mm 3 m/s 735 mmHg 88%
    20:00 +11°C° 0 mm 3 m/s 736 mmHg 89%
    21:00 +11°C° 0 mm 3 m/s 736 mmHg 90%
    22:00 +11°C° 0 mm 3 m/s 736 mmHg 90%
    23:00 +11°C° 0 mm 3 m/s 736 mmHg 91%
    Mostrar mais